WTB35Y EDDS-LOWS

Flight info

Callsign WTB35Y
Flight time 0h 35m
Altitude 21000
Route ABTAL4B/25 ABTAL L173 RIXED Y161 RIDAR Z98 WLD T702 BADIT BADIT2R
Aircraft A319/M-SDE3FGHIRWY/LB1

Departure

Time 2026-05-07 17:41
Airport Stuttgart Airport (EDDS)

Arrival

Time 2026-05-07 18:17
Airport Salzburg Airport (LOWS)
Time Latitude Longitude Altitude Speed Heading
2026-05-07 17:25 48.68958 9.20289 1289 ft 0 kts 164°
2026-05-07 17:36 48.68941 9.20297 1288 ft 8 kts 164°
2026-05-07 17:36 48.68898 9.20364 1285 ft 11 kts 85°
2026-05-07 17:36 48.68916 9.20437 1285 ft 12 kts 74°
2026-05-07 17:37 48.68939 9.20568 1287 ft 16 kts 73°
2026-05-07 17:37 48.68976 9.20766 1285 ft 21 kts 73°
2026-05-07 17:37 48.69019 9.20984 1285 ft 23 kts 73°
2026-05-07 17:37 48.69063 9.21221 1289 ft 24 kts 73°
2026-05-07 17:38 48.69112 9.21473 1288 ft 26 kts 74°
2026-05-07 17:38 48.69163 9.21742 1285 ft 27 kts 74°
2026-05-07 17:38 48.69216 9.22026 1285 ft 29 kts 74°
2026-05-07 17:38 48.69271 9.22319 1287 ft 25 kts 74°
2026-05-07 17:39 48.69321 9.22579 1285 ft 25 kts 74°
2026-05-07 17:39 48.69369 9.22833 1287 ft 25 kts 75°
2026-05-07 17:39 48.69419 9.23106 1285 ft 27 kts 73°
2026-05-07 17:39 48.69471 9.23371 1287 ft 26 kts 74°
2026-05-07 17:40 48.69520 9.23644 1285 ft 27 kts 91°
2026-05-07 17:40 48.69398 9.23710 1288 ft 24 kts 221°
2026-05-07 17:40 48.69268 9.23539 1288 ft 25 kts 219°
2026-05-07 17:40 48.69184 9.23228 1287 ft 58 kts 254°
2026-05-07 17:41 48.69002 9.22267 1290 ft 130 kts 253°
2026-05-07 17:41 48.68700 9.20715 1459 ft 170 kts 253°
2026-05-07 17:41 48.68352 9.18940 2062 ft 181 kts 254°
2026-05-07 17:41 48.68021 9.17058 2767 ft 188 kts 256°
2026-05-07 17:42 48.67692 9.15259 3334 ft 194 kts 253°
2026-05-07 17:42 48.67284 9.13191 3650 ft 218 kts 254°
2026-05-07 17:42 48.66783 9.10895 4170 ft 239 kts 246°
2026-05-07 17:42 48.65627 9.09072 4994 ft 248 kts 206°
2026-05-07 17:43 48.63927 9.08698 5931 ft 254 kts 169°
2026-05-07 17:43 48.62334 9.09855 6876 ft 259 kts 141°
2026-05-07 17:43 48.61353 9.12128 7750 ft 265 kts 105°
2026-05-07 17:43 48.61225 9.14955 8391 ft 282 kts 83°
2026-05-07 17:44 48.61531 9.17962 9012 ft 294 kts 83°
2026-05-07 17:44 48.61736 9.21072 9812 ft 300 kts 86°
2026-05-07 17:44 48.61884 9.24261 10395 ft 314 kts 84°
2026-05-07 17:44 48.62359 9.27595 10686 ft 336 kts 70°
2026-05-07 17:45 48.63252 9.30908 11303 ft 343 kts 66°
2026-05-07 17:45 48.64190 9.34253 12032 ft 347 kts 66°
2026-05-07 17:45 48.65147 9.37621 12795 ft 350 kts 66°
2026-05-07 17:45 48.66115 9.41033 13551 ft 353 kts 67°
2026-05-07 17:46 48.66719 9.44640 14210 ft 358 kts 85°
2026-05-07 17:46 48.66650 9.48421 14836 ft 361 kts 94°
2026-05-07 17:46 48.66481 9.52235 15465 ft 365 kts 94°
2026-05-07 17:46 48.66302 9.56080 16085 ft 369 kts 95°
2026-05-07 17:47 48.66115 9.59984 16698 ft 373 kts 95°
2026-05-07 17:47 48.65925 9.63910 17301 ft 377 kts 95°
2026-05-07 17:47 48.65728 9.67932 17921 ft 381 kts 95°
2026-05-07 17:47 48.65537 9.71925 18504 ft 385 kts 95°
2026-05-07 17:48 48.65342 9.75978 19054 ft 389 kts 95°
2026-05-07 17:48 48.65144 9.80055 19603 ft 392 kts 95°
2026-05-07 17:48 48.64942 9.84212 19952 ft 395 kts 95°
2026-05-07 17:48 48.64742 9.88356 20027 ft 395 kts 95°
2026-05-07 17:49 48.64539 9.92497 20045 ft 394 kts 95°
2026-05-07 17:49 48.64334 9.96626 20052 ft 394 kts 95°
2026-05-07 17:49 48.64129 10.00721 20051 ft 394 kts 95°
2026-05-07 17:49 48.63916 10.04902 20053 ft 394 kts 95°
2026-05-07 17:50 48.63707 10.09038 20052 ft 394 kts 94°
2026-05-07 17:50 48.63497 10.13176 20064 ft 394 kts 94°
2026-05-07 17:50 48.63289 10.17267 20065 ft 395 kts 95°
2026-05-07 17:50 48.63077 10.21410 20065 ft 396 kts 94°
2026-05-07 17:51 48.62865 10.25564 20059 ft 397 kts 95°
2026-05-07 17:51 48.62647 10.29725 20068 ft 398 kts 95°
2026-05-07 17:51 48.62426 10.33889 20067 ft 398 kts 95°
2026-05-07 17:51 48.62201 10.38061 20065 ft 398 kts 95°
2026-05-07 17:52 48.61975 10.42219 20069 ft 398 kts 95°
2026-05-07 17:52 48.61748 10.46389 20059 ft 398 kts 95°
2026-05-07 17:52 48.61520 10.50562 20070 ft 398 kts 95°
2026-05-07 17:52 48.61291 10.54731 20070 ft 398 kts 95°
2026-05-07 17:53 48.60901 10.58858 20072 ft 397 kts 105°
2026-05-07 17:53 48.60160 10.62884 20068 ft 397 kts 106°
2026-05-07 17:53 48.59412 10.66902 20063 ft 398 kts 106°
2026-05-07 17:53 48.58665 10.70918 20064 ft 397 kts 106°
2026-05-07 17:54 48.57918 10.74913 20047 ft 397 kts 106°
2026-05-07 17:54 48.57163 10.78926 20054 ft 395 kts 107°
2026-05-07 17:54 48.56407 10.82916 20059 ft 394 kts 107°
2026-05-07 17:54 48.55657 10.86867 19953 ft 387 kts 107°
2026-05-07 17:55 48.54926 10.90725 19703 ft 378 kts 107°
2026-05-07 17:55 48.54210 10.94491 19459 ft 370 kts 107°
2026-05-07 17:55 48.53504 10.98184 19208 ft 362 kts 107°
2026-05-07 17:55 48.52806 11.01814 18966 ft 356 kts 107°
2026-05-07 17:56 48.52129 11.05331 18730 ft 353 kts 107°
2026-05-07 17:56 48.51447 11.08885 18497 ft 352 kts 107°
2026-05-07 17:56 48.50764 11.12465 18245 ft 350 kts 107°
2026-05-07 17:56 48.50089 11.15991 18043 ft 349 kts 107°
2026-05-07 17:57 48.49416 11.19501 18049 ft 349 kts 107°
2026-05-07 17:57 48.48965 11.21838 18046 ft 349 kts 107°
2026-05-07 17:57 48.48057 11.26526 18035 ft 349 kts 107°
2026-05-07 17:57 48.47376 11.30035 18038 ft 350 kts 107°
2026-05-07 17:58 48.46690 11.33562 18036 ft 351 kts 107°
2026-05-07 17:58 48.46001 11.37096 18040 ft 351 kts 107°
2026-05-07 17:58 48.45313 11.40622 18043 ft 351 kts 107°
2026-05-07 17:58 48.44624 11.44157 18048 ft 351 kts 107°
2026-05-07 17:59 48.43938 11.47682 18051 ft 351 kts 107°
2026-05-07 17:59 48.43252 11.51211 18050 ft 351 kts 107°
2026-05-07 17:59 48.42563 11.54745 18049 ft 351 kts 107°
2026-05-07 17:59 48.41873 11.58268 18050 ft 351 kts 107°
2026-05-07 18:00 48.41179 11.61791 18053 ft 351 kts 107°
2026-05-07 18:00 48.40483 11.65317 18060 ft 351 kts 107°
2026-05-07 18:00 48.39786 11.68835 18057 ft 351 kts 107°
2026-05-07 18:00 48.39088 11.72365 18055 ft 352 kts 107°
2026-05-07 18:01 48.38389 11.75898 18059 ft 353 kts 107°
2026-05-07 18:01 48.37687 11.79441 18059 ft 353 kts 107°
2026-05-07 18:01 48.36984 11.82978 18057 ft 353 kts 107°
2026-05-07 18:01 48.36277 11.86521 18060 ft 353 kts 107°
2026-05-07 18:02 48.34866 11.93565 17609 ft 348 kts 107°
2026-05-07 18:02 48.34169 11.97035 17218 ft 346 kts 108°
2026-05-07 18:02 48.33476 12.00478 16821 ft 344 kts 108°
2026-05-07 18:03 48.32785 12.03916 16421 ft 342 kts 108°
2026-05-07 18:03 48.32098 12.07328 16026 ft 341 kts 108°
2026-05-07 18:03 48.31414 12.10725 15637 ft 339 kts 108°
2026-05-07 18:03 48.30730 12.14116 15244 ft 338 kts 108°
2026-05-07 18:04 48.30055 12.17453 14867 ft 337 kts 108°
2026-05-07 18:04 48.29374 12.20816 14466 ft 335 kts 108°
2026-05-07 18:04 48.28693 12.24166 14078 ft 334 kts 109°
2026-05-07 18:04 48.28011 12.27497 13665 ft 334 kts 109°
2026-05-07 18:05 48.27331 12.30820 13269 ft 331 kts 109°
2026-05-07 18:05 48.26648 12.34156 12882 ft 329 kts 109°
2026-05-07 18:05 48.25985 12.37382 12503 ft 327 kts 109°
2026-05-07 18:05 48.25316 12.40635 12117 ft 325 kts 109°
2026-05-07 18:06 48.24652 12.43870 11739 ft 323 kts 109°
2026-05-07 18:06 48.23992 12.47091 11354 ft 321 kts 109°
2026-05-07 18:06 48.23339 12.50276 10984 ft 320 kts 108°
2026-05-07 18:06 48.22685 12.53465 10612 ft 318 kts 109°
2026-05-07 18:07 48.22035 12.56627 10248 ft 317 kts 109°
2026-05-07 18:07 48.21387 12.59756 10021 ft 311 kts 109°
2026-05-07 18:07 48.20747 12.62838 9500 ft 308 kts 108°
2026-05-07 18:07 48.20118 12.65868 9060 ft 300 kts 108°
2026-05-07 18:08 48.19505 12.68810 8704 ft 290 kts 109°
2026-05-07 18:08 48.18912 12.71649 8366 ft 281 kts 108°
2026-05-07 18:08 48.18339 12.74398 8037 ft 273 kts 108°
2026-05-07 18:08 48.17776 12.77105 7713 ft 272 kts 108°
2026-05-07 18:09 48.17141 12.79752 7402 ft 269 kts 118°
2026-05-07 18:09 48.16082 12.82015 7084 ft 264 kts 136°
2026-05-07 18:09 48.14640 12.83703 6772 ft 262 kts 153°
2026-05-07 18:09 48.12967 12.84697 6456 ft 258 kts 169°
2026-05-07 18:10 48.11223 12.85316 6135 ft 257 kts 169°
2026-05-07 18:10 48.09490 12.85944 5822 ft 257 kts 168°
2026-05-07 18:10 48.07763 12.86571 5587 ft 252 kts 168°
2026-05-07 18:10 48.06090 12.87177 5497 ft 242 kts 168°
2026-05-07 18:11 48.04494 12.87753 5410 ft 232 kts 168°
2026-05-07 18:11 48.03464 12.88122 5344 ft 229 kts 168°
2026-05-07 18:11 48.01394 12.88865 5204 ft 228 kts 168°
2026-05-07 18:11 47.99838 12.89292 5100 ft 226 kts 180°
2026-05-07 18:12 47.98797 12.89318 5037 ft 225 kts 181°
2026-05-07 18:12 47.96745 12.89471 4914 ft 217 kts 170°
2026-05-07 18:12 47.95793 12.89932 4742 ft 212 kts 159°
2026-05-07 18:12 47.94465 12.90782 4465 ft 203 kts 158°
2026-05-07 18:13 47.93201 12.91596 4203 ft 193 kts 158°
2026-05-07 18:13 47.92024 12.92348 3950 ft 175 kts 159°
2026-05-07 18:13 47.90956 12.93027 3727 ft 160 kts 160°
2026-05-07 18:13 47.89969 12.93655 3517 ft 150 kts 159°
2026-05-07 18:14 47.89032 12.94265 3314 ft 145 kts 159°
2026-05-07 18:14 47.88131 12.94864 3096 ft 143 kts 158°
2026-05-07 18:14 47.87227 12.95476 2879 ft 142 kts 158°
2026-05-07 18:14 47.86328 12.96084 2684 ft 141 kts 161°
2026-05-07 18:15 47.85421 12.96642 2471 ft 141 kts 158°
2026-05-07 18:15 47.84525 12.97165 2253 ft 137 kts 161°
2026-05-07 18:15 47.83641 12.97685 2106 ft 137 kts 156°
2026-05-07 18:15 47.82763 12.98213 1935 ft 135 kts 157°
2026-05-07 18:16 47.81909 12.98746 1777 ft 132 kts 155°
2026-05-07 18:16 47.81068 12.99296 1549 ft 134 kts 156°
2026-05-07 18:16 47.80212 12.99838 1437 ft 135 kts 155°
2026-05-07 18:16 47.79445 13.00338 1427 ft 76 kts 156°
2026-05-07 18:17 47.79161 13.00501 1419 ft 38 kts 171°
2026-05-07 18:17 47.79102 13.00410 1419 ft 7 kts 301°
2026-05-07 18:17 47.79122 13.00333 1425 ft 8 kts 281°
2026-05-07 18:17 47.79099 13.00282 1422 ft 6 kts 157°
2026-05-07 18:18 47.79069 13.00300 1420 ft 8 kts 158°